Location: Igon
(43.1667°N, 0.2333°W)
Time: 15:12:11
(UTC+00:00)

Lacrosse 5 - Pass Details

Date: 29 November 2020
Orbit: 713 x 726 km, 57.0° (Epoch: 22 January)

Event Time Altitude Azimuth Distance (km) Brightness Sun altitude
Exits shadow 04:32:06 64° 68° (ENE) 791 2.1 -28.4°
Drops below altitude 10° 04:36:25 10° 49° (NE) 2,195 4.9 -27.6°
Sets 04:38:48 0° 48° (NE) 3,118 5.8 -27.2°
